Location: Lixville
(37.5770°N, 89.9118°W)
Time: 19:58:25
(UTC+00:00)

Explorer 11/Cluster Stage 4 - Visible Passes

Search period start: 22 January 2026 00:00
Search period end: 01 February 2026 00:00
Orbit: 463 x 1179 km, 28.8° (Epoch: 22 January)

Date Brightness Start Highest point End Pass type
(mag) Time Alt. Az. Time Alt. Az. Time Alt. Az.
22 Jan 8.0 10:49:18 26° S 10:49:18 26° S 10:53:07 10° SE visible
23 Jan 8.4 10:26:45 23° SSE 10:26:45 23° SSE 10:29:25 10° SE visible
23 Jan 8.8 12:10:52 10° SW 12:11:19 10° SSW 12:11:46 10° SSW visible
24 Jan 8.9 10:04:13 17° SSE 10:04:13 17° SSE 10:05:41 10° SE visible
24 Jan 8.8 11:45:50 10° SW 11:47:21 11° SSW 11:48:48 10° SSW visible
25 Jan 9.4 09:41:40 11° SE 09:41:40 11° SE 09:41:52 10° SE visible
25 Jan 8.8 11:22:55 12° SW 11:23:20 12° SSW 11:25:22 10° SSW visible
26 Jan 8.9 11:00:25 12° SSW 11:00:25 12° SSW 11:01:45 10° S visible
27 Jan 9.2 10:37:56 10° S 10:37:56 10° S 10:38:03 10° S visible
30 Jan 9.1 02:08:12 10° SSW 02:09:18 13° S 02:09:18 13° S visible
31 Jan 8.8 01:44:17 10° SSW 01:46:49 17° S 01:46:49 17° S visible
